sat.trackr.live / text

‹ back to catalog

GEESAT-3 09

NORAD 61019 · 2024-159J

PAYLOAD ACTIVE UNKNOWN

§ Identity

Operator
Country
PRC
Launch date
2024-09-05
Launch site
TAISC
Launch vehicle
Mass (kg)
RCS (m²)

External: N2YO · Heavens-Above · Gunter

§ Orbital elements

Epoch: 2026-09-22T20:59:24.503424Z

Period
97.00 min
Inclination
49.9994°
Eccentricity
0.0021409
Mean motion
14.84499117 rev/d
Perigee alt
600.2 km
Apogee alt
630.1 km
Semi-major
6,993.3 km
B*
1.4308e-4
RAAN
349.4764°
Arg perigee
76.2139°
Mean anomaly
284.1180°
Rev number
11,128

§ Raw data

GEESAT-3 091 61019U 24159J   26265.87458916  .00000989  00000+0  14308-3 0  99912 61019  49.9994 349.4764 0021409  76.2139 284.1180 14.84499117111289

JSON: /api/v1/satellites/61019 · /tle

For live sub-satellite position, see the globe view (requires WebGL).

§ Visibility from observer

Set your observer location to see the next 7 days of passes ≥ 10°. The values pass through the URL so the page stays shareable.

No JS? Fill the form by hand. The geolocation button needs JavaScript.